Back to catalog

COSMOS 839 DEB

AliveUNKNOWN
NORAD 10620·DEBRIS·🇷🇺 Russia

Launched Jul 8, 1976 from Plesetsk Cosmodrome

Loading…

Next Passes (next 24 hours)

TLE

FreshSource: Space-Track

Epoch: Sep 14, 2026, 05:24 UTC

1 10620U 76067AU  26257.22529079  .00000718  00000-0  26520-2 0  9996
2 10620  65.9550 351.2644 0652923 268.8622 107.1286 12.42439214266457

Track COSMOS 839 DEB in real time with AllMySat

Download on the App Store